DW2633 Weather Reports


time (UTC)temp
F
wind
direction
speed
knots
gust
knots
rain 1hr
in
rain 24hr
in
rain mn
in
humidity
%
barometer
mb
20260510133502 50 221 0.9 0.0 0.00 0.00 0.00 96 1010.7
20260510133002 50 146 1.7 0.0 0.00 0.00 0.00 96 1010.5
20260510132503 50 146 2.6 0.0 0.00 0.00 0.00 96 1010.2
20260510132004 50 234 3.5 0.0 0.00 0.00 0.00 96 1010.5
20260510131502 50 248 5.2 0.0 0.00 0.00 0.00 96 1010.8
20260510131001 50 269 7.8 0.0 0.00 0.00 0.00 96 1010.7
20260510130501 51 283 7.0 0.0 0.00 0.00 0.00 96 1010.9
20260510130100 51 271 5.2 0.0 0.00 0.00 0.00 96 1010.5
20260510125558 51 272 4.3 0.0 0.00 0.00 0.00 96 1010.4
20260510125057 51 276 2.6 0.0 0.00 0.00 0.00 96 1010.2
20260510124603 50 241 1.7 0.0 0.00 0.00 0.00 96 1010.0
20260510124057 50 237 0.9 0.0 0.00 0.00 0.00 96 1010.0
20260510123557 50 205 0.0 0.0 0.00 0.00 0.00 96 1010.0
20260510123108 50 205 0.9 0.0 0.00 0.00 0.00 97 1009.8
20260510122556 50 204 1.7 0.0 0.00 0.00 0.00 97 1009.9
20260510122056 50 220 2.6 0.0 0.00 0.00 0.00 97 1010.0
20260510121558 50 246 3.5 0.0 0.00 0.00 0.00 97 1010.0
20260510121057 50 250 3.5 0.0 0.00 0.00 0.00 97 1010.0
20260510120557 50 243 3.5 0.0 0.00 0.00 0.00 97 1010.0
20260510120055 50 243 3.5 0.0 0.00 0.00 0.00 97 1009.9
20260510115555 50 236 2.6 0.0 0.00 0.00 0.00 97 1010.0
20260510115054 50 238 1.7 0.0 0.00 0.00 0.00 97 1009.9
20260510114554 50 231 0.9 0.0 0.00 0.00 0.00 97 1009.7
20260510114053 50 231 0.9 0.0 0.00 0.00 0.00 97 1009.4
20260510113553 50 231 0.9 0.0 0.00 0.00 0.00 96 1009.6
20260510113053 49 230 1.7 0.0 0.00 0.00 0.00 96 1009.4
20260510112553 49 231 2.6 0.0 0.00 0.00 0.00 97 1009.5
20260510112054 49 238 3.5 0.0 0.00 0.00 0.00 97 1009.4
20260510111553 49 228 3.5 0.0 0.00 0.00 0.00 97 1009.6
20260510111052 49 229 3.5 0.0 0.00 0.00 0.00 97 1009.6
20260510110553 49 242 3.5 0.0 0.00 0.00 0.00 97 1009.6
20260510110052 49 239 3.5 0.0 0.00 0.00 0.00 97 1009.7
20260510105553 49 238 1.7 0.0 0.00 0.00 0.00 97 1009.4
20260510105050 49 239 0.9 0.0 0.00 0.00 0.00 97 1009.3
20260510104550 48 152 0.9 0.0 0.00 0.00 0.00 97 1009.1
20260510104048 48 153 1.7 0.0 0.00 0.00 0.00 96 1009.0
20260510103548 48 142 1.7 0.0 0.00 0.00 0.00 96 1008.9
20260510103057 47 192 0.9 0.0 0.00 0.00 0.00 96 1008.9
20260510102547 47 196 0.9 0.0 0.00 0.00 0.00 96 1008.8
20260510102047 47 219 0.9 0.0 0.00 0.00 0.00 96 1008.9
20260510101552 47 221 0.0 0.0 0.00 0.00 0.00 96 1008.9
20260510101047 47 215 0.0 0.0 0.00 0.00 0.00 96 1008.8
20260510100547 47 215 0.0 0.0 0.00 0.00 0.00 96 1008.5
20260510100047 47 215 0.9 0.0 0.00 0.00 0.00 96 1008.5
20260510095547 47 215 1.7 0.0 0.00 0.00 0.00 96 1008.5
20260510095048 47 215 0.9 0.0 0.00 0.00 0.00 96 1008.4
20260510094548 47 221 0.0 0.0 0.00 0.00 0.00 96 1008.4
20260510094045 47 221 0.0 0.0 0.00 0.00 0.00 96 1008.4
20260510093546 47 221 0.9 0.0 0.00 0.00 0.00 95 1008.3
20260510093045 47 221 0.9 0.0 0.00 0.00 0.00 95 1008.3
20260510092544 47 211 0.9 0.0 0.00 0.00 0.00 95 1008.2
20260510092044 47 208 0.9 0.0 0.00 0.00 0.00 95 1008.1
20260510091544 47 149 0.0 0.0 0.00 0.00 0.00 95 1008.0
20260510091044 48 149 0.0 0.0 0.00 0.00 0.00 95 1007.7
20260510090544 48 149 0.0 0.0 0.00 0.00 0.00 95 1007.8
20260510090048 48 149 0.9 0.0 0.00 0.00 0.00 95 1007.9
20260510085542 48 149 0.9 0.0 0.00 0.00 0.00 95 1008.0
20260510085042 48 143 1.7 0.0 0.00 0.00 0.00 95 1008.0
20260510084541 48 143 2.6 0.0 0.00 0.00 0.00 95 1007.9
20260510084041 49 142 2.6 0.0 0.00 0.00 0.00 95 1007.8
20260510083543 49 153 2.6 0.0 0.00 0.00 0.00 96 1008.0
20260510083040 49 156 3.5 0.0 0.00 0.00 0.00 96 1008.0
20260510082539 49 146 3.5 0.0 0.00 0.00 0.00 95 1008.0
20260510082039 49 132 4.3 0.0 0.00 0.00 0.00 96 1007.8
20260510081544 49 142 4.3 0.0 0.00 0.00 0.00 96 1007.8
20260510081039 49 160 3.5 0.0 0.00 0.00 0.00 96 1008.0
20260510080539 49 144 1.7 0.0 0.00 0.00 0.00 96 1008.1
20260510080038 49 159 1.7 0.0 0.00 0.00 0.00 96 1008.2
20260510075537 49 184 1.7 0.0 0.00 0.00 0.00 96 1008.0
20260510075037 49 154 1.7 0.0 0.00 0.00 0.00 96 1008.0
20260510074537 49 163 4.3 0.0 0.00 0.00 0.00 96 1007.9
20260510074037 49 155 4.3 0.0 0.00 0.00 0.00 96 1007.6
20260510073535 49 138 2.6 0.0 0.00 0.00 0.00 96 1007.6
20260510073036 49 150 2.6 0.0 0.00 0.00 0.00 96 1007.9
20260510072535 49 151 3.5 0.0 0.00 0.00 0.00 96 1007.8
20260510072035 49 138 3.5 0.0 0.00 0.00 0.00 96 1007.2
20260510071535 49 153 4.3 0.0 0.00 0.00 0.00 96 1007.6
20260510071034 49 152 5.2 0.0 0.00 0.00 0.00 95 1007.5
20260510070536 50 137 5.2 0.0 0.00 0.00 0.00 95 1007.3
20260510070036 50 144 5.2 0.0 0.00 0.00 0.00 95 1007.9
20260510065534 50 128 5.2 0.0 0.00 0.00 0.00 95 1007.9
20260510065031 50 136 4.3 0.0 0.00 0.00 0.00 95 1008.0
20260510064530 50 148 4.3 0.0 0.00 0.00 0.00 95 1008.4
20260510064029 50 146 3.5 0.0 0.00 0.00 0.00 95 1008.2
20260510063529 50 140 2.6 0.0 0.00 0.00 0.00 95 1008.4
20260510063029 50 207 2.6 0.0 0.00 0.00 0.00 95 1008.5
20260510062528 50 223 2.6 0.0 0.00 0.00 0.00 95 1008.6
20260510062030 50 223 1.7 0.0 0.00 0.00 0.00 96 1008.6
20260510061531 50 234 0.0 0.0 0.00 0.00 0.00 96 1008.8
20260510061030 50 234 0.9 0.0 0.00 0.00 0.00 96 1008.8
20260510060528 50 235 1.7 0.0 0.00 0.00 0.00 96 1008.9
20260510060028 50 222 4.3 0.0 0.00 0.00 0.00 96 1009.1
20260510055527 50 221 6.1 0.0 0.00 0.00 0.00 96 1009.0
20260510055026 50 251 6.1 0.0 0.00 0.00 0.00 95 1009.0
20260510054531 50 259 5.2 0.0 0.00 0.00 0.00 95 1008.8
20260510054024 50 251 4.3 0.0 0.00 0.00 0.00 95 1008.8
20260510053523 50 253 3.5 0.0 0.00 0.00 0.00 95 1008.8
20260510053022 50 246 0.9 0.0 0.00 0.00 0.00 95 1008.5
20260510052521 50 222 1.7 0.0 0.00 0.00 0.00 95 1008.5
20260510052021 50 222 2.6 0.0 0.00 0.00 0.00 95 1008.3
20260510051530 50 233 2.6 0.0 0.00 0.00 0.00 95 1008.3
20260510051020 50 232 2.6 0.0 0.00 0.00 0.00 95 1008.3
20260510050521 50 225 0.9 0.0 0.00 0.00 0.00 95 1008.2
20260510050020 50 209 0.9 0.0 0.00 0.00 0.00 95 1008.1
20260510045526 50 223 0.9 0.0 0.00 0.00 0.00 95 1008.1
20260510045020 50 202 0.9 0.0 0.00 0.00 0.00 95 1008.0
20260510044519 50 185 0.9 0.0 0.00 0.00 0.00 95 1008.0
20260510044019 50 178 0.9 0.0 0.00 0.00 0.00 95 1008.0
20260510043519 50 213 0.9 0.0 0.00 0.00 0.00 95 1008.0
20260510043023 50 203 0.9 0.0 0.00 0.00 0.00 95 1008.1
20260510042518 50 203 0.0 0.0 0.00 0.00 0.00 95 1008.0
20260510042017 50 222 0.0 0.0 0.00 0.00 0.00 95 1008.1
20260510041517 50 237 1.7 0.0 0.00 0.00 0.00 95 1008.2
20260510041017 50 237 2.6 0.0 0.00 0.00 0.00 95 1008.2
20260510040516 50 229 1.7 0.0 0.00 0.00 0.00 95 1008.3
20260510040014 50 238 1.7 0.0 0.00 0.00 0.00 95 1008.2
20260510035516 51 207 2.6 0.0 0.00 0.00 0.00 95 1008.1
20260510035014 50 146 4.3 0.0 0.00 0.00 0.00 96 1008.1
20260510034515 51 173 4.3 0.0 0.00 0.00 0.00 95 1008.0
20260510034017 51 127 4.3 0.0 0.00 0.00 0.00 96 1007.9
20260510033513 51 159 3.5 0.0 0.00 0.00 0.00 95 1008.0
20260510033014 50 149 2.6 0.0 0.00 0.00 0.00 95 1008.0
20260510032513 51 159 3.5 0.0 0.00 0.00 0.00 95 1008.0
20260510032013 51 148 3.5 0.0 0.00 0.00 0.00 95 1008.0
20260510031513 50 130 3.5 0.0 0.00 0.00 0.00 95 1008.0
20260510031014 50 189 4.3 0.0 0.00 0.00 0.00 95 1007.8
20260510030513 51 149 5.2 0.0 0.00 0.00 0.00 95 1007.8
20260510030015 51 136 5.2 0.0 0.00 0.00 0.00 95 1007.8
20260510025513 50 144 6.1 0.0 0.00 0.00 0.00 95 1007.8
20260510025013 51 128 7.0 0.0 0.00 0.00 0.00 95 1007.8
20260510024513 51 139 7.0 0.0 0.00 0.00 0.00 95 1007.9
20260510024013 51 129 6.1 0.0 0.00 0.00 0.00 95 1008.1
20260510023512 50 141 5.2 0.0 0.00 0.00 0.00 95 1008.1
20260510023013 51 147 5.2 0.0 0.00 0.00 0.00 96 1008.1
20260510022516 50 163 4.3 0.0 0.00 0.00 0.00 95 1008.1
20260510022012 50 148 4.3 0.0 0.00 0.00 0.00 95 1008.1
20260510021516 51 144 5.2 0.0 0.00 0.00 0.00 95 1008.1
20260510021011 51 148 5.2 0.0 0.00 0.00 0.00 96 1008.1
20260510020511 51 179 3.5 0.0 0.00 0.00 0.00 95 1007.9
20260510020012 51 146 4.3 0.0 0.00 0.00 0.00 96 1008.0
20260510015511 51 134 5.2 0.0 0.00 0.00 0.00 96 1007.8
20260510015011 51 159 5.2 0.0 0.00 0.00 0.00 96 1007.9
20260510014513 51 153 6.1 0.0 0.00 0.00 0.00 96 1008.0
20260510014010 51 160 6.1 0.0 0.00 0.00 0.00 96 1008.0
20260510013512 51 136 7.0 0.0 0.00 0.00 0.00 96 1008.1
20260510013010 50 131 7.0 0.0 0.00 0.00 0.00 96 1008.0
20260510012513 50 144 7.0 0.0 0.00 0.00 0.00 96 1007.8
20260510012009 50 131 7.0 0.0 0.00 0.00 0.00 96 1007.6
20260510011509 50 132 6.1 0.0 0.00 0.00 0.00 96 1007.8
20260510011009 50 132 5.2 0.0 0.00 0.00 0.00 96 1008.0
20260510010508 50 126 2.6 0.0 0.00 0.00 0.00 96 1008.1
20260510010008 50 157 0.9 0.0 0.00 0.00 0.00 95 1008.1
20260510005508 50 155 2.6 0.0 0.00 0.00 0.00 96 1008.0
20260510005008 50 155 3.5 0.0 0.00 0.00 0.00 95 1007.9
20260510004508 50 136 1.7 0.0 0.00 0.00 0.00 95 1007.8
20260510004011 50 316 0.9 0.0 0.00 0.00 0.00 95 1007.8
20260510003507 50 309 0.0 0.0 0.00 0.00 0.00 95 1007.9
20260510003007 50 309 0.0 0.0 0.00 0.00 0.00 95 1008.0
20260510002510 50 309 0.9 0.0 0.00 0.00 0.00 95 1007.9
20260510002006 50 310 3.5 0.0 0.00 0.00 0.00 95 1008.1
20260510001508 50 310 3.5 0.0 0.00 0.00 0.00 95 1007.9
20260510001006 50 304 2.6 0.0 0.00 0.00 0.00 95 1007.8
20260510000506 50 284 1.7 0.0 0.00 0.00 0.00 95 1007.8
20260510000011 50 284 1.7 0.0 0.00 0.00 0.00 95 1007.7
20260509235506 50 284 1.7 0.0 0.00 0.00 0.00 95 1007.6
20260509235006 50 284 1.7 0.0 0.00 0.00 0.00 95 1007.5
20260509234509 50 283 0.9 0.0 0.00 0.00 0.00 95 1007.4
20260509234009 50 262 0.0 0.0 0.00 0.00 0.00 94 1007.3
20260509233505 50 262 0.0 0.0 0.00 0.00 0.00 95 1007.2
20260509233005 50 262 0.9 0.0 0.00 0.00 0.00 95 1007.2
20260509232507 50 261 0.0 0.0 0.00 0.00 0.00 95 1007.2
20260509232005 50 261 0.9 0.0 0.00 0.00 0.00 95 1007.3
20260509231505 50 261 1.7 0.0 0.00 0.00 0.00 95 1007.3
20260509231004 50 261 1.7 0.0 0.00 0.00 0.00 95 1007.2
20260509230504 50 269 1.7 0.0 0.00 0.00 0.00 95 1007.2
20260509230005 50 274 1.7 0.0 0.00 0.00 0.00 95 1007.1
20260509225505 50 274 1.7 0.0 0.00 0.00 0.00 95 1007.1
20260509225004 50 298 0.9 0.0 0.00 0.00 0.00 95 1007.2
20260509224504 50 298 1.7 0.0 0.00 0.00 0.00 95 1007.1
20260509224003 50 298 2.6 0.0 0.00 0.00 0.00 95 1007.2
20260509223504 50 279 1.7 0.0 0.00 0.00 0.00 95 1007.2
20260509223004 50 222 0.9 0.0 0.00 0.00 0.00 96 1007.2
20260509222503 50 221 0.9 0.0 0.00 0.00 0.00 96 1007.2
20260509222005 50 150 1.7 0.0 0.00 0.00 0.00 96 1007.1
20260509221503 50 159 2.6 0.0 0.00 0.00 0.00 96 1007.2
20260509221002 50 133 4.3 0.0 0.00 0.00 0.00 96 1007.1
20260509220502 50 133 5.2 0.0 0.00 0.00 0.00 96 1007.1
20260509215602 49 144 3.5 0.0 0.00 0.00 0.00 95 1007.2
20260509215100 49 132 4.3 0.0 0.00 0.00 0.00 95 1007.2
20260509214559 49 153 5.2 0.0 0.00 0.00 0.00 95 1007.3
20260509214058 49 139 7.0 0.0 0.00 0.00 0.00 95 1007.5
20260509213557 49 140 7.0 0.0 0.00 0.00 0.00 95 1007.5
20260509213058 49 115 6.1 0.0 0.00 0.00 0.00 95 1007.5
20260509212556 49 140 5.2 0.0 0.00 0.00 0.00 95 1007.5
20260509212056 49 137 5.2 0.0 0.00 0.00 0.00 95 1007.5
20260509211600 49 123 5.2 0.0 0.00 0.00 0.00 95 1007.6
20260509211056 49 134 5.2 0.0 0.00 0.00 0.00 95 1007.6
20260509210556 49 148 5.2 0.0 0.00 0.00 0.00 95 1007.6
20260509210106 49 148 5.2 0.0 0.00 0.00 0.00 95 1007.7
20260509205554 49 148 5.2 0.0 0.00 0.00 0.00 95 1007.6
20260509205054 49 118 5.2 0.0 0.00 0.00 0.00 95 1007.7
20260509204553 49 136 6.1 0.0 0.00 0.00 0.00 95 1007.7
20260509204052 49 145 6.1 0.0 0.00 0.00 0.00 95 1007.8
20260509203554 49 151 5.2 0.0 0.00 0.00 0.00 95 1007.9
20260509203052 49 157 4.3 0.0 0.00 0.00 0.00 95 1007.9
20260509202553 49 143 3.5 0.0 0.00 0.00 0.00 95 1008.0
20260509202050 49 132 2.6 0.0 0.00 0.00 0.00 95 1008.0
20260509201549 49 204 2.6 0.0 0.00 0.00 0.00 95 1008.0
20260509201048 48 134 2.6 0.0 0.00 0.00 0.00 95 1008.2
20260509200547 48 205 1.7 0.0 0.00 0.00 0.00 95 1008.5
20260509200050 48 196 4.3 0.0 0.00 0.00 0.00 95 1008.5
20260509195550 48 171 5.2 0.0 0.00 0.00 0.00 95 1008.5
20260509195045 48 132 4.3 0.0 0.00 0.00 0.00 95 1008.6
20260509194544 48 153 3.5 0.0 0.00 0.00 0.00 95 1008.7
20260509194044 48 163 1.7 0.0 0.00 0.00 0.00 95 1008.7
20260509193544 48 155 3.5 0.0 0.00 0.00 0.00 95 1008.8
20260509193042 48 142 3.5 0.0 0.00 0.00 0.00 95 1008.8
20260509192542 48 130 3.5 0.0 0.00 0.00 0.00 95 1008.8
20260509192043 48 137 2.6 0.0 0.00 0.00 0.00 95 1008.8
20260509191543 48 159 2.6 0.0 0.00 0.00 0.00 95 1008.8
20260509191044 48 158 2.6 0.0 0.00 0.00 0.00 95 1008.7
20260509190545 48 158 3.5 0.0 0.00 0.00 0.00 95 1008.7
20260509190048 48 151 3.5 0.0 0.00 0.00 0.00 95 1008.7
20260509185541 48 113 4.3 0.0 0.00 0.00 0.00 95 1008.8
20260509185041 47 150 4.3 0.0 0.00 0.00 0.00 95 1008.8
20260509184540 47 130 2.6 0.0 0.00 0.00 0.00 95 1008.8
20260509184039 47 123 3.5 0.0 0.00 0.00 0.00 95 1008.9
20260509183539 47 144 4.3 0.0 0.00 0.00 0.00 95 1008.8
20260509183039 47 132 6.1 0.0 0.00 0.00 0.00 94 1008.8
20260509182538 47 126 7.0 0.0 0.00 0.00 0.00 95 1008.8
20260509182038 47 144 6.1 0.0 0.00 0.00 0.00 95 1008.8
20260509181537 47 123 5.2 0.0 0.00 0.00 0.00 95 1008.9
20260509181037 47 143 3.5 0.0 0.00 0.00 0.00 95 1008.9
20260509180537 47 142 2.6 0.0 0.00 0.00 0.00 94 1008.9
20260509180037 47 128 3.5 0.0 0.00 0.00 0.00 94 1009.0
20260509175536 47 126 4.3 0.0 0.00 0.00 0.00 94 1009.1
20260509175036 47 123 2.6 0.0 0.00 0.00 0.00 94 1009.0
20260509174538 47 160 2.6 0.0 0.00 0.00 0.00 94 1009.0
20260509174035 47 163 2.6 0.0 0.00 0.00 0.00 94 1009.2
20260509173534 47 134 1.7 0.0 0.00 0.00 0.00 94 1009.2
20260509173055 47 161 2.6 0.0 0.00 0.00 0.00 94 1009.3
20260509172533 47 143 3.5 0.0 0.00 0.00 0.00 94 1009.4
20260509172035 47 140 2.6 0.0 0.00 0.00 0.00 94 1009.3
20260509171539 47 49 1.7 0.0 0.00 0.00 0.00 95 1009.4
20260509171032 47 142 3.5 0.0 0.00 0.00 0.00 95 1009.4
20260509170531 46 118 4.3 0.0 0.00 0.00 0.00 95 1009.4
20260509170032 46 144 4.3 0.0 0.00 0.00 0.00 95 1009.6
20260509165529 46 134 2.6 0.0 0.00 0.00 0.00 95 1009.6
20260509165028 46 123 1.7 0.0 0.00 0.00 0.00 94 1009.8
20260509164528 46 136 1.7 0.0 0.00 0.00 0.00 94 1009.9
20260509164026 46 230 0.9 0.0 0.00 0.00 0.00 93 1009.9
20260509163526 46 220 1.7 0.0 0.00 0.00 0.00 94 1010.1
20260509163026 46 225 1.7 0.0 0.00 0.00 0.00 93 1010.2
20260509162526 46 223 0.9 0.0 0.00 0.00 0.00 94 1010.1
20260509162026 46 157 1.7 0.0 0.00 0.00 0.00 95 1010.0
20260509161525 46 144 5.2 0.0 0.00 0.00 0.00 95 1010.0
20260509161024 46 138 7.8 0.0 0.00 0.00 0.00 94 1010.1
20260509160524 45 150 9.6 0.0 0.00 0.00 0.00 95 1010.2
20260509160024 45 138 7.8 0.0 0.00 0.00 0.00 94 1010.2
20260509155521 45 137 7.0 0.0 0.00 0.00 0.00 94 1010.3
20260509155021 45 146 6.1 0.0 0.00 0.00 0.00 94 1010.6
20260509154520 45 136 3.5 0.0 0.00 0.00 0.00 94 1010.6
20260509154018 44 196 0.9 0.0 0.00 0.00 0.00 93 1010.9
20260509153518 44 178 0.9 0.0 0.00 0.00 0.00 93 1010.9
20260509153029 44 244 0.9 0.0 0.00 0.00 0.00 93 1010.9
20260509152518 44 159 0.9 0.0 0.00 0.00 0.00 94 1010.9
20260509152017 44 146 0.9 0.0 0.00 0.00 0.00 93 1010.8
20260509151516 44 198 0.0 0.0 0.00 0.00 0.00 93 1010.8
20260509151020 44 215 0.9 0.0 0.00 0.00 0.00 93 1011.0
20260509150516 44 215 0.9 0.0 0.00 0.00 0.00 93 1011.0
20260509150016 44 153 1.7 0.0 0.00 0.00 0.00 93 1011.0
20260509145516 44 136 1.7 0.0 0.00 0.00 0.00 93 1010.9
20260509145016 44 118 1.7 0.0 0.00 0.00 0.00 93 1011.0
20260509144516 44 230 1.7 0.0 0.00 0.00 0.00 92 1011.1
20260509144015 44 199 2.6 0.0 0.00 0.00 0.00 92 1010.9
20260509143522 44 137 2.6 0.0 0.00 0.00 0.00 93 1010.9
20260509143018 44 148 0.9 0.0 0.00 0.00 0.00 93 1010.9
20260509142514 44 157 0.9 0.0 0.00 0.00 0.00 92 1010.9
20260509142014 44 156 1.7 0.0 0.00 0.00 0.00 92 1011.0
20260509141514 44 161 0.9 0.0 0.00 0.00 0.00 92 1010.9
20260509141018 44 139 0.9 0.0 0.00 0.00 0.00 93 1010.9
20260509140515 44 186 0.9 0.0 0.00 0.00 0.00 93 1010.9
20260509140015 44 147 1.7 0.0 0.00 0.00 0.00 92 1010.9
20260509135513 44 154 1.7 0.0 0.00 0.00 0.00 92 1010.9
20260509135014 44 140 0.9 0.0 0.00 0.00 0.00 92 1010.9
20260509134512 44 148 0.9 0.0 0.00 0.00 0.00 92 1010.9
20260509134011 43 215 0.0 0.0 0.00 0.00 0.00 91 1010.9